Location: Starlight Observatory
(38.4029°N, 85.8936°W)
Time: 08:08:29
(UTC-04:00)

Amateur Radio Satellites - All Passes

Search period start: 23 August 2017 07:38
Search period end: 24 August 2017 07:38
Location: Starlight Observatory, 38.4029°N, 85.8936°W

Satellite Date Start Highest point End Downlink Frequencies (MHz)
Time Altitude Azimuth
NUDT-PHONESAT 23 Aug 07:54:24 07:58:08 63° 100° (E) 08:01:51 437.300
LilacSat-2 23 Aug 07:57:20 08:01:13 77° 284° (WNW) 08:05:05 437.200
XW-2D 23 Aug 07:58:17 08:02:09 77° 283° (WNW) 08:05:59 145.860 - 145.880
CUTE-I 23 Aug 08:06:56 08:12:16 81° 103° (ESE) 08:17:34 437.470
XW-2B 23 Aug 08:09:29 08:13:16 57° 285° (WNW) 08:17:02 145.730 - 145.750
NO-84 23 Aug 08:18:17 08:20:59 29° 39° (NE) 08:23:51 435.350 FM
CUTE 1.7 + AOD 2 23 Aug 08:24:01 08:27:52 31° 97° (E) 08:31:41 437.475
XW-2C 23 Aug 08:29:00 08:32:27 32° 288° (WNW) 08:35:53 145.795 - 145.815
STRAND 1 23 Aug 08:32:17 08:37:23 76° 256° (WSW) 08:42:31 437.568
XW-2F 23 Aug 08:39:11 08:42:22 26° 289° (WNW) 08:45:34 145.980 - 146.000
PCSat 23 Aug 08:45:44 08:51:11 84° 245° (WSW) 08:56:35 145.827
FO-29 23 Aug 08:49:30 08:54:35 21° 63° (ENE) 08:59:21 435.910
UWE-3 23 Aug 08:49:35 08:52:34 18° 94° (E) 08:55:35 435.000/436.395/437.385
SO-50 23 Aug 08:56:28 09:01:00 65° 241° (WSW) 09:05:34 436.795
KAITUO 1B 23 Aug 09:00:20 09:02:59 18° 291° (WNW) 09:05:38 145.475/437.950
CUBEBUG 2 23 Aug 09:01:29 09:05:32 43° 99° (E) 09:09:41 437.445
Tancredo 1 23 Aug 09:05:17 09:08:10 72° 141° (SE) 09:11:04 437.200
SEEDS 23 Aug 09:06:30 09:10:44 61° 100° (E) 09:14:55 437.485
O/OREOS (USA 219) 23 Aug 09:13:03 09:16:17 20° 101° (E) 09:19:31 437.305
HO-68 23 Aug 09:16:51 09:24:03 89° 292° (WNW) 09:31:14 435.675
ZACube-1 23 Aug 09:23:00 09:26:30 23° 95° (E) 09:30:02 437.345
ISS 23 Aug 09:23:06 09:25:47 23° 132° (SE) 09:28:28 437.550
nSIGHT-1 23 Aug 09:27:49 09:30:39 28° 133° (SE) 09:33:30 .
UNISAT 6 23 Aug 09:37:38 09:39:15 12° 64° (ENE) 09:40:51 437.425
AO-73 23 Aug 09:42:13 09:46:11 34° 98° (E) 09:50:11 145.935
AAUSAT CUBESAT 2 23 Aug 09:44:03 09:48:14 74° 101° (ESE) 09:52:23 437.432
XW-2A 23 Aug 09:48:52 09:52:03 38° 286° (WNW) 09:55:14 145.665 - 145.685
CUTE-I 23 Aug 09:49:21 09:51:35 13° 300° (WNW) 09:53:49 437.470
NO-84 23 Aug 09:55:53 09:58:15 20° 232° (SW) 10:00:45 435.350 FM
RS-15 23 Aug 09:57:31 10:05:35 21° 98° (E) 10:13:40 29.354- 29.394
CUTE 1.7 + AOD 2 23 Aug 10:00:17 10:03:28 21° 292° (WNW) 10:06:38 437.475
TIGRISAT 23 Aug 10:09:49 10:13:19 25° 69° (ENE) 10:16:47 435.000
Oscar 11 23 Aug 10:23:59 10:28:21 76° 101° (E) 10:32:42 .
UWE-3 23 Aug 10:25:11 10:29:05 35° 288° (WNW) 10:33:04 435.000/436.395/437.385
DELFI C3 23 Aug 10:26:33 10:29:05 16° 93° (E) 10:31:38 145.870
PRISM 23 Aug 10:27:46 10:31:22 29° 70° (ENE) 10:34:59 437.425
FO-29 23 Aug 10:31:25 10:39:01 76° 257° (WSW) 10:45:55 435.910
CUBEBUG 2 23 Aug 10:39:21 10:41:49 15° 293° (WNW) 10:44:19 437.445
Tancredo 1 23 Aug 10:41:52 10:43:37 15° 336° (NNW) 10:45:23 437.200
SEEDS 23 Aug 10:44:34 10:45:51 11° 296° (WNW) 10:47:08 437.485
O/OREOS (USA 219) 23 Aug 10:51:20 10:55:24 34° 297° (WNW) 10:59:31 437.305
ZACube-1 23 Aug 10:59:02 11:02:43 28° 289° (WNW) 11:06:27 437.345
ISS 23 Aug 10:59:06 11:02:08 34° 328° (NNW) 11:05:10 437.550
nSIGHT-1 23 Aug 11:04:03 11:06:58 29° 329° (NNW) 11:09:55 .
HO-68 23 Aug 11:06:36 11:10:48 17° 304° (NW) 11:15:00 435.675
M-CUBED/EXP-1 PRIME 23 Aug 11:07:07 11:10:02 17° 60° (ENE) 11:12:58 437.505
UNISAT 6 23 Aug 11:11:12 11:15:28 58° 259° (W) 11:19:41 437.425
Max Valier Satellite 23 Aug 11:12:45 11:16:19 45° 99° (E) 11:19:54 145.860
AIST 2D 23 Aug 11:12:58 11:14:16 12° 67° (ENE) 11:15:32 435.315
AO-73 23 Aug 11:19:03 11:22:10 20° 292° (WNW) 11:25:19 145.935
QB50P2 23 Aug 11:32:45 11:34:19 12° 64° (ENE) 11:35:53 145.880/145.840
EO-79 23 Aug 11:33:08 11:34:03 11° 64° (ENE) 11:35:00 145.935-145.965
TIGRISAT 23 Aug 11:46:19 11:49:54 25° 264° (W) 11:53:28 435.000
LO-87 23 Aug 11:50:41 11:51:30 11° 92° (E) 11:52:20 145.935 - 145.965
DUCHIFAT 1 23 Aug 11:57:57 12:00:34 16° 67° (ENE) 12:03:11 145.980
DELFI C3 23 Aug 12:00:22 12:03:56 32° 288° (WNW) 12:07:27 145.870
EO-88 23 Aug 12:00:48 12:04:22 50° 285° (WNW) 12:07:56 145.990 - 145.960
PRISM 23 Aug 12:03:29 12:06:38 21° 265° (W) 12:09:47 437.425
RS-15 23 Aug 12:04:02 12:16:15 86° 118° (ESE) 12:28:40 29.354- 29.394
JUGNU 23 Aug 12:17:16 12:19:30 12° 180° (S) 12:21:45 437.505
FO-29 23 Aug 12:22:19 12:24:42 12° 271° (W) 12:27:03 435.910
ISS 23 Aug 12:38:43 12:39:24 10° 347° (NNW) 12:40:06 437.550
M-CUBED/EXP-1 PRIME 23 Aug 12:39:32 12:43:56 53° 256° (WSW) 12:48:31 437.505
NANOSAT C BR1 23 Aug 12:42:45 12:46:52 61° 75° (ENE) 12:51:00 145.865
AIST 2D 23 Aug 12:43:51 12:47:05 36° 262° (W) 12:50:20 435.315
Max Valier Satellite 23 Aug 12:48:39 12:49:43 11° 294° (WNW) 12:50:48 145.860
POLYITAN 1 23 Aug 12:50:03 12:54:14 85° 76° (ENE) 12:58:26 437.675
EO-79 23 Aug 13:05:06 13:09:15 63° 259° (W) 13:13:25 145.935-145.965
QB50P2 23 Aug 13:05:29 13:09:36 56° 260° (W) 13:13:44 145.880/145.840
SPROUT 23 Aug 13:08:17 13:10:47 15° 93° (E) 13:13:16 437.525
BUGSAT 1 23 Aug 13:21:00 13:24:46 37° 72° (ENE) 13:28:31 437.445
VELOX 1 23 Aug 13:21:27 13:24:21 17° 93° (E) 13:27:14 145.980
LO-87 23 Aug 13:21:47 13:25:05 38° 287° (WNW) 13:28:22 145.935 - 145.965
ESTCUBE 1 23 Aug 13:25:46 13:30:20 77° 284° (WNW) 13:34:51 437.505/2401.250
DUCHIFAT 1 23 Aug 13:32:01 13:35:54 38° 262° (W) 13:39:48 145.980
Gurwin Techsat 1B 23 Aug 13:48:51 13:53:07 25° 66° (ENE) 13:57:24 435.225
Oscar 19 23 Aug 13:51:52 13:56:38 40° 70° (ENE) 14:01:26 437.125/150
AO-7 23 Aug 13:56:19 13:58:16 11° 45° (NE) 14:00:12 .
RS-15 23 Aug 14:19:40 14:30:24 33° 323° (NW) 14:41:09 29.354- 29.394
SRMSAT 23 Aug 14:22:28 14:24:21 12° 176° (S) 14:26:15 437.500
UKube-1 23 Aug 14:23:04 14:25:21 14° 93° (E) 14:27:37 .
AO-85 23 Aug 14:25:28 14:29:37 42° 55° (NE) 14:34:03 145.980
BEESAT 3 23 Aug 14:32:07 14:36:08 80° 61° (ENE) 14:40:02 437.485
SPROUT 23 Aug 14:42:51 14:46:49 40° 288° (WNW) 14:50:47 437.525
DX 1 23 Aug 14:49:06 14:53:16 44° 100° (E) 14:57:24 434.975-435.025
BEESAT 2 23 Aug 14:52:34 14:56:26 41° 55° (NE) 15:00:14 435.950
VELOX 1 23 Aug 14:56:49 15:00:56 39° 289° (WNW) 15:05:00 145.980
BUGSAT 1 23 Aug 14:57:52 15:00:14 15° 267° (W) 15:02:36 437.445
50 SAT 23 Aug 15:14:18 15:17:34 47° 285° (WNW) 15:20:46 437.505
ITAMSAT 1 23 Aug 15:19:05 15:22:41 19° 64° (ENE) 15:26:16 435.822/435.867
Gurwin Techsat 1B 23 Aug 15:27:53 15:32:50 39° 262° (W) 15:37:48 435.225
Tancredo 1 23 Aug 15:29:13 15:31:59 41° 35° (NE) 15:34:45 437.200
Oscar 19 23 Aug 15:32:04 15:36:03 23° 266° (W) 15:40:05 437.125/150
YUBILEINY 23 Aug 15:32:15 15:39:00 26° 82° (E) 15:45:42 435.215
AO-7 23 Aug 15:41:05 15:49:07 53° 65° (ENE) 15:57:09 .
ISS 23 Aug 15:51:58 15:54:37 22° 27° (NNE) 15:57:17 437.550
nSIGHT-1 23 Aug 15:56:24 15:59:10 25° 29° (NNE) 16:01:54 .
BEESAT 23 Aug 15:57:19 16:00:29 17° 93° (E) 16:03:38 436.000
UKube-1 23 Aug 15:57:28 16:01:35 45° 288° (WNW) 16:05:40 .
AO-85 23 Aug 16:06:36 16:09:46 19° 248° (WSW) 16:13:05 145.980
SRMSAT 23 Aug 16:11:03 16:12:36 11° 186° (S) 16:14:09 437.500
DX 1 23 Aug 16:26:28 16:29:03 16° 295° (WNW) 16:31:38 434.975-435.025
BEESAT 2 23 Aug 16:31:22 16:33:48 16° 251° (WSW) 16:36:13 435.950
ITUPSAT 1 23 Aug 16:32:37 16:37:07 40° 99° (E) 16:41:37 437.325
RS-15 23 Aug 16:40:43 16:48:30 18° 358° (N) 16:56:11 29.354- 29.394
MOZHAYETS 4 23 Aug 16:51:25 16:55:59 58° 101° (E) 17:00:33
ITAMSAT 1 23 Aug 16:56:41 17:01:43 51° 259° (W) 17:06:47 435.822/435.867
DOVE 4 23 Aug 16:58:32 17:01:05 14° 64° (ENE) 17:03:35 437.250
Tancredo 1 23 Aug 17:05:17 17:06:53 14° 230° (SW) 17:08:28 437.200
CUBESAT XI-V 23 Aug 17:19:50 17:23:34 23° 94° (E) 17:27:16 437.345
YUBILEINY 23 Aug 17:26:20 17:35:01 64° 280° (W) 17:43:44 435.215
ISS 23 Aug 17:28:06 17:31:13 43° 224° (SW) 17:34:20 437.550
nSIGHT-1 23 Aug 17:32:35 17:35:35 35° 225° (SW) 17:38:33 .
BEESAT 23 Aug 17:33:54 17:38:27 44° 288° (WNW) 17:42:57 436.000
AO-7 23 Aug 17:34:47 17:42:05 33° 262° (W) 17:49:26 .
CUTE-I 23 Aug 17:50:23 17:53:09 14° 61° (ENE) 17:55:56 437.470
HO-68 23 Aug 18:03:28 18:04:07 10° 51° (NE) 18:04:45 435.675
KAITUO 1B 23 Aug 18:06:36 18:07:33 11° 65° (ENE) 18:08:30 145.475/437.950
ITUPSAT 1 23 Aug 18:11:09 18:14:38 20° 294° (WNW) 18:18:07 437.325
KKS-1 23 Aug 18:17:42 18:21:51 38° 99° (E) 18:25:57 437.445
MOZHAYETS 4 23 Aug 18:30:18 18:32:37 14° 296° (WNW) 18:34:56
NUDT-PHONESAT 23 Aug 18:32:32 18:35:23 22° 70° (ENE) 18:38:16 437.300
DOVE 4 23 Aug 18:32:52 18:38:09 74° 259° (W) 18:43:18 437.250
LilacSat-2 23 Aug 18:37:32 18:41:03 38° 73° (ENE) 18:44:36 437.200
XW-2D 23 Aug 18:37:52 18:41:21 37° 73° (ENE) 18:44:51 145.860 - 145.880
STARS 23 Aug 18:47:40 18:51:37 33° 98° (E) 18:55:31 437.465
XW-2B 23 Aug 18:48:50 18:52:27 49° 75° (ENE) 18:56:08 145.730 - 145.750
RS-15 23 Aug 18:56:30 19:06:50 30° 34° (NNE) 19:16:41 29.354- 29.394
CUBESAT XI-V 23 Aug 18:56:44 19:00:56 33° 290° (WNW) 19:05:07 437.345
XW-2C 23 Aug 19:07:58 19:11:42 87° 258° (WSW) 19:15:30 145.795 - 145.815
CUTE 1.7 + AOD 2 23 Aug 19:15:43 19:18:43 19° 68° (ENE) 19:21:44 437.475
XW-2F 23 Aug 19:17:33 19:21:15 69° 258° (WSW) 19:25:01 145.980 - 146.000
O/OREOS (USA 219) 23 Aug 19:23:18 19:27:21 31° 62° (ENE) 19:31:25 437.305
CUTE-I 23 Aug 19:27:12 19:32:32 73° 257° (WSW) 19:37:55 437.470
YUBILEINY 23 Aug 19:31:38 19:33:45 11° 302° (WNW) 19:35:52 435.215
KAITUO 1B 23 Aug 19:37:31 19:41:05 46° 261° (W) 19:44:42 145.475/437.950
HO-68 23 Aug 19:43:22 19:50:21 59° 69° (ENE) 19:57:20 435.675
UWE-3 23 Aug 19:46:43 19:48:19 12° 65° (ENE) 19:49:56 435.000/436.395/437.385
KKS-1 23 Aug 19:55:04 19:58:05 18° 294° (WNW) 20:01:05 437.445
SEEDS 23 Aug 19:56:32 20:00:19 33° 72° (ENE) 20:04:08 437.485
CUBEBUG 2 23 Aug 19:58:21 20:02:01 29° 71° (ENE) 20:05:38 437.445
NUDT-PHONESAT 23 Aug 20:06:22 20:09:10 21° 265° (W) 20:12:00 437.300
LilacSat-2 23 Aug 20:13:50 20:15:29 12° 268° (W) 20:17:09 437.200
XW-2D 23 Aug 20:13:58 20:15:40 13° 268° (W) 20:17:23 145.860 - 145.880
XW-2A 23 Aug 20:18:09 20:21:20 45° 74° (ENE) 20:24:33 145.665 - 145.685
ZACube-1 23 Aug 20:18:31 20:20:50 15° 66° (ENE) 20:23:11 437.345
STARS 23 Aug 20:24:29 20:27:43 20° 293° (WNW) 20:30:55 437.465
AAUSAT CUBESAT 2 23 Aug 20:32:21 20:36:12 38° 72° (ENE) 20:40:05 437.432
AO-73 23 Aug 20:36:51 20:39:59 21° 69° (ENE) 20:43:06 145.935
STRAND 1 23 Aug 20:44:24 20:49:12 41° 99° (E) 20:54:00 437.568
CUTE 1.7 + AOD 2 23 Aug 20:50:27 20:54:16 33° 263° (W) 20:58:09 437.475
O/OREOS (USA 219) 23 Aug 21:02:59 21:06:34 23° 258° (WSW) 21:10:09 437.305
RS-15 23 Aug 21:09:05 21:21:11 88° 61° (ENE) 21:32:34 29.354- 29.394
Oscar 11 23 Aug 21:16:59 21:21:06 46° 73° (ENE) 21:25:14 .
UWE-3 23 Aug 21:20:14 21:24:19 52° 260° (W) 21:28:24 435.000/436.395/437.385
HO-68 23 Aug 21:32:49 21:38:25 24° 266° (W) 21:44:03 435.675
SEEDS 23 Aug 21:33:08 21:36:03 18° 267° (W) 21:39:00 437.485
CUBEBUG 2 23 Aug 21:35:26 21:38:38 20° 265° (W) 21:41:47 437.445
PCSat 23 Aug 21:45:10 21:48:11 15° 104° (ESE) 21:51:12 145.827
FO-29 23 Aug 21:46:32 21:48:14 11° 88° (E) 21:49:56 435.910
Max Valier Satellite 23 Aug 21:51:03 21:53:23 16° 68° (ENE) 21:55:44 145.860
ZACube-1 23 Aug 21:52:51 21:56:46 41° 261° (W) 22:00:41 437.345
AAUSAT CUBESAT 2 23 Aug 22:09:15 22:11:47 16° 267° (W) 22:14:20 437.432
AO-73 23 Aug 22:12:31 22:16:02 27° 264° (W) 22:19:36 145.935
STRAND 1 23 Aug 22:24:12 22:28:06 22° 294° (WNW) 22:31:59 437.568
EO-88 23 Aug 22:36:34 22:40:04 48° 75° (ENE) 22:43:36 145.990 - 145.960
DELFI C3 23 Aug 22:43:12 22:47:11 75° 257° (WSW) 22:51:12 145.870
Oscar 11 23 Aug 22:55:14 22:57:27 14° 268° (W) 22:59:41 .
UNISAT 6 23 Aug 23:04:09 23:08:01 30° 97° (E) 23:11:55 437.425
SO-50 23 Aug 23:09:00 23:13:25 57° 118° (ESE) 23:17:51 436.795
RS-15 23 Aug 23:23:48 23:31:53 22° 261° (W) 23:39:45 29.354- 29.394
Max Valier Satellite 23 Aug 23:23:50 23:27:00 27° 264° (W) 23:30:10 145.860
PCSat 23 Aug 23:25:34 23:30:57 66° 300° (WNW) 23:36:22 145.827
FO-29 23 Aug 23:28:37 23:34:03 70° 286° (WNW) 23:39:11 435.910
TIGRISAT 23 Aug 23:37:55 23:42:15 69° 101° (ESE) 23:46:39 435.000
PRISM 23 Aug 23:44:57 23:49:01 57° 101° (E) 23:53:02 437.425
LO-87 23 Aug 23:55:40 23:59:11 58° 76° (ENE) 00:02:43 145.935 - 145.965
SPROUT 24 Aug 00:02:16 00:02:52 10° 63° (ENE) 00:03:27 437.525
AIST 2D 24 Aug 00:10:47 00:13:09 17° 94° (E) 00:15:30 435.315
VELOX 1 24 Aug 00:17:59 00:20:16 14° 64° (ENE) 00:22:33 145.980
M-CUBED/EXP-1 PRIME 24 Aug 00:22:16 00:23:36 11° 94° (E) 00:24:55 437.505
ESTCUBE 1 24 Aug 00:23:19 00:27:48 80° 76° (ENE) 00:32:21 437.505/2401.250
NANOSAT C BR1 24 Aug 00:31:00 00:31:56 11° 91° (E) 00:32:53 145.865
POLYITAN 1 24 Aug 00:37:30 00:39:59 15° 93° (E) 00:42:26 437.675
UNISAT 6 24 Aug 00:41:12 00:44:32 22° 291° (WNW) 00:47:55 437.425
SO-50 24 Aug 00:51:13 00:54:13 17° 315° (NW) 00:57:14 436.795
EO-79 24 Aug 00:51:39 00:54:57 22° 95° (E) 00:58:14 145.935-145.965
QB50P2 24 Aug 00:52:02 00:55:31 25° 96° (E) 00:58:59 145.880/145.840
NO-84 24 Aug 01:10:44 01:13:43 83° 135° (SE) 01:16:36 435.350 FM
PCSat 24 Aug 01:13:47 01:15:24 11° 319° (NW) 01:17:01 145.827
DUCHIFAT 1 24 Aug 01:17:07 01:20:56 34° 98° (E) 01:24:45 145.980
TIGRISAT 24 Aug 01:17:33 01:18:22 10° 296° (WNW) 01:19:11 435.000
UKube-1 24 Aug 01:17:35 01:18:38 11° 63° (ENE) 01:19:42 .
PRISM 24 Aug 01:22:30 01:23:45 11° 296° (WNW) 01:25:00 437.425
SPROUT 24 Aug 01:33:56 01:38:10 68° 259° (W) 01:42:24 437.525
DX 1 24 Aug 01:43:02 01:46:56 32° 70° (ENE) 01:50:51 434.975-435.025
50 SAT 24 Aug 01:43:20 01:46:30 38° 74° (ENE) 01:49:43 437.505
AIST 2D 24 Aug 01:43:21 01:46:19 25° 288° (WNW) 01:49:16 435.315
VELOX 1 24 Aug 01:51:52 01:56:13 54° 260° (W) 02:00:36 145.980
M-CUBED/EXP-1 PRIME 24 Aug 01:54:16 01:58:25 53° 292° (WNW) 02:02:15 437.505
NANOSAT C BR1 24 Aug 02:03:51 02:07:58 56° 285° (WNW) 02:12:04 145.865
Oscar 19 24 Aug 02:06:05 02:09:09 16° 92° (E) 02:12:12 437.125/150
POLYITAN 1 24 Aug 02:11:57 02:15:55 40° 288° (WNW) 02:19:52 437.675
EO-79 24 Aug 02:27:05 02:30:39 27° 290° (WNW) 02:34:14 145.935-145.965
QB50P2 24 Aug 02:27:45 02:31:11 25° 291° (WNW) 02:34:38 145.880/145.840
BUGSAT 1 24 Aug 02:38:46 02:42:49 82° 102° (ESE) 02:46:52 437.445
UKube-1 24 Aug 02:49:46 02:54:04 67° 258° (WSW) 02:58:24 .
NO-84 24 Aug 02:51:03 02:51:27 10° 332° (NNW) 02:51:51 435.350 FM
DUCHIFAT 1 24 Aug 02:53:27 02:56:20 18° 293° (WNW) 02:59:14 145.980
BEESAT 24 Aug 03:02:32 03:05:43 18° 65° (ENE) 03:08:54 436.000
DX 1 24 Aug 03:19:51 03:23:08 21° 265° (W) 03:26:26 434.975-435.025
ITUPSAT 1 24 Aug 03:37:48 03:42:13 40° 71° (ENE) 03:46:38 437.325
YUBILEINY 24 Aug 03:38:19 03:46:56 61° 79° (E) 03:55:28 435.215
Oscar 19 24 Aug 03:43:41 03:48:48 58° 287° (WNW) 03:53:53 437.125/150
Gurwin Techsat 1B 24 Aug 03:45:05 03:50:25 87° 285° (WNW) 03:55:44 435.225
AO-7 24 Aug 03:46:23 03:51:17 17° 91° (E) 03:56:08 .
MOZHAYETS 4 24 Aug 03:51:37 03:55:57 45° 73° (ENE) 04:00:19
BEESAT 3 24 Aug 04:21:07 04:23:54 18° 111° (ESE) 04:26:44 437.485
CUBESAT XI-V 24 Aug 04:21:59 04:25:19 20° 66° (ENE) 04:28:40 437.345
BEESAT 24 Aug 04:38:34 04:43:07 45° 261° (W) 04:47:41 436.000
AO-85 24 Aug 04:40:17 04:42:48 16° 111° (ESE) 04:45:17 145.980
ITAMSAT 1 24 Aug 05:10:47 05:15:56 64° 102° (ESE) 05:21:03 435.822/435.867
KKS-1 24 Aug 05:14:13 05:18:07 30° 70° (ENE) 05:22:02 437.445
ITUPSAT 1 24 Aug 05:16:45 05:20:09 19° 266° (W) 05:23:34 437.325
Gurwin Techsat 1B 24 Aug 05:28:12 05:29:32 11° 301° (WNW) 05:30:51 435.225
MOZHAYETS 4 24 Aug 05:30:37 05:33:19 15° 268° (W) 05:36:02
YUBILEINY 24 Aug 05:36:12 05:43:02 27° 278° (W) 05:49:51 435.215
AO-7 24 Aug 05:36:36 05:44:58 90° 290° (WNW) 05:53:16 .
STARS 24 Aug 05:42:54 05:46:30 25° 68° (ENE) 05:50:06 437.465
BEESAT 3 24 Aug 05:57:31 06:01:12 35° 307° (NW) 06:04:57 437.485
CUBESAT XI-V 24 Aug 05:58:00 06:02:22 39° 262° (W) 06:06:46 437.345
AO-85 24 Aug 06:19:14 06:22:52 35° 306° (NW) 06:26:30 145.980
BEESAT 2 24 Aug 06:19:16 06:23:13 64° 303° (WNW) 06:27:15 435.950
PCSat 24 Aug 06:33:56 06:35:55 12° 41° (NE) 06:37:53 145.827
DOVE 4 24 Aug 06:34:12 06:38:09 31° 96° (E) 06:41:54 437.250
XW-2C 24 Aug 06:44:13 06:45:13 11° 91° (E) 06:46:14 145.795 - 145.815
KKS-1 24 Aug 06:51:08 06:54:39 23° 265° (W) 06:58:12 437.445
ITAMSAT 1 24 Aug 06:51:52 06:54:50 16° 298° (WNW) 06:57:47 435.822/435.867
XW-2F 24 Aug 06:52:29 06:54:22 13° 92° (E) 06:56:15 145.980 - 146.000
KAITUO 1B 24 Aug 07:10:42 07:13:19 18° 94° (E) 07:15:55 145.475/437.950
STARS 24 Aug 07:18:59 07:22:43 27° 264° (W) 07:26:26 437.465
